Location: Highland Meadows Observing Site
(48.4428°N, 114.5461°W)
Time: 07:41:41
(UTC-06:00)

Gurwin Techsat 1B - Visible Passes

Search period start: 30 October 2014 00:00
Search period end: 08 November 2014 23:00
Orbit: 813 x 814 km, 98.5° (Epoch: 29 October)

Date Brightness Start Highest point End Pass type
(mag) Time Alt. Az. Time Alt. Az. Time Alt. Az.
30 Oct 11.3 03:53:58 10° NNE 03:54:44 14° NNE 03:54:44 14° NNE visible
30 Oct 10.3 05:34:01 10° N 05:35:56 21° NNW 05:35:56 21° NNW visible
31 Oct 10.5 05:11:08 10° N 05:12:52 21° N 05:12:52 21° N visible
01 Nov 10.7 04:48:22 10° NNE 04:49:48 19° NNE 04:49:48 19° NNE visible
01 Nov 10.6 06:29:55 10° NNW 06:31:01 13° NNW 06:31:01 13° NNW visible
02 Nov 11.0 03:25:43 10° NNE 03:26:44 16° NNE 03:26:44 16° NNE visible
02 Nov 10.5 05:06:33 10° N 05:07:57 16° NNW 05:07:57 16° NNW visible
03 Nov 11.3 03:03:11 10° NNE 03:03:40 13° NNE 03:03:40 13° NNE visible
03 Nov 10.5 04:43:28 10° N 04:44:53 17° NNW 04:44:53 17° NNW visible
04 Nov 10.6 04:20:32 10° N 04:21:49 17° N 04:21:49 17° N visible
05 Nov 10.9 03:57:43 10° N 03:58:45 16° N 03:58:45 16° N visible
05 Nov 10.7 05:39:42 10° NNW 05:39:57 11° NNW 05:39:57 11° NNW visible
06 Nov 11.1 03:35:01 10° NNE 03:35:41 14° NNE 03:35:41 14° NNE visible
06 Nov 10.7 05:16:08 10° NNW 05:16:53 13° NNW 05:16:53 13° NNW visible
07 Nov 11.4 03:12:26 10° NNE 03:12:37 11° NNE 03:12:37 11° NNE visible
07 Nov 10.7 04:52:57 10° N 04:53:49 14° NNW 04:53:49 14° NNW visible
08 Nov 10.8 04:29:57 10° N 04:30:45 14° N 04:30:45 14° N visible
